Precipitable_Water
2.19 2.27 2.28 2.31 2.29 2.20 2.05 1.83 1.64 1.55 1.52 1.48 1.43 1.37 1.37 1.35 1.43 1.50 1.55 1.55 1.56 1.64 1.72 1.84 1.89 1.97 1.96 1.86 1.80 1.75 1.64 1.62 1.53 1.38 1.36 1.48 1.49 1.47 1.37 1.52 1.49 1.40 1.54
2.23 2.24 2.26 2.23 2.20 2.04 1.83 1.61 1.54 1.52 1.48 1.43 1.40 1.40 1.35 1.39 1.46 1.53 1.59 1.60 1.62 1.66 1.73 1.75 1.83 1.88 1.95 1.95 1.87 1.79 1.74 1.77 1.78 1.49 1.59 1.88 1.77 1.67 1.48 1.44 1.34 1.32 1.41
2.12 2.19 2.20 2.18 2.05 1.82 1.71 1.60 1.56 1.50 1.46 1.44 1.39 1.37 1.40 1.43 1.46 1.55 1.60 1.61 1.64 1.64 1.68 1.77 1.74 1.82 1.88 1.90 1.89 1.86 1.81 1.74 1.65 1.33 1.52 1.75 1.51 1.53 1.59 1.36 1.39 1.47 1.52
2.11 2.15 2.11 2.08 1.84 1.73 1.63 1.59 1.54 1.52 1.49 1.43 1.36 1.46 1.51 1.51 1.52 1.54 1.59 1.60 1.62 1.62 1.65 1.67 1.74 1.81 1.88 1.93 1.92 1.95 1.93 1.86 1.60 1.25 1.39 1.59 1.84 1.70 1.60 1.46 1.49 1.67 1.62
2.06 2.09 2.07 1.92 1.72 1.62 1.59 1.54 1.54 1.55 1.48 1.41 1.44 1.56 1.60 1.58 1.61 1.58 1.59 1.63 1.66 1.58 1.64 1.67 1.71 1.75 1.85 1.86 1.92 1.99 2.07 1.97 1.76 1.34 1.28 1.33 1.63 1.60 1.64 1.52 1.44 1.55 1.60
1.99 2.00 1.97 1.74 1.62 1.56 1.54 1.52 1.54 1.54 1.52 1.51 1.53 1.62 1.62 1.69 1.71 1.66 1.66 1.68 1.68 1.60 1.66 1.65 1.66 1.72 1.81 1.83 1.93 2.07 2.10 1.89 1.98 1.83 1.14 1.31 1.41 1.48 1.66 1.53 1.73 1.65 1.53
1.86 1.87 1.81 1.69 1.58 1.56 1.53 1.52 1.52 1.51 1.51 1.57 1.61 1.68 1.73 1.77 1.77 1.71 1.76 1.76 1.78 1.79 1.77 1.71 1.71 1.69 1.69 1.82 1.91 1.87 1.89 1.87 1.90 1.79 1.59 1.13 1.41 1.40 1.67 1.65 1.56 1.41 1.38
1.73 1.72 1.69 1.64 1.57 1.54 1.54 1.53 1.53 1.52 1.54 1.57 1.68 1.73 1.78 1.82 1.73 1.76 1.77 1.81 1.78 1.77 1.76 1.75 1.80 1.82 1.86 1.88 1.93 1.82 1.76 1.77 1.76 1.72 1.80 1.28 1.35 1.50 1.65 1.58 1.44 1.32 1.33
1.68 1.61 1.60 1.56 1.54 1.51 1.49 1.53 1.56 1.56 1.56 1.58 1.68 1.72 1.75 1.78 1.75 1.73 1.67 1.69 1.65 1.68 1.72 1.72 1.77 1.77 1.74 1.72 1.71 1.58 1.58 1.58 1.73 1.84 1.83 1.74 1.45 1.48 1.51 1.45 1.40 1.44 1.33
1.61 1.58 1.55 1.53 1.54 1.51 1.52 1.54 1.55 1.57 1.53 1.55 1.58 1.62 1.65 1.76 1.77 1.73 1.67 1.61 1.58 1.53 1.58 1.62 1.63 1.59 1.61 1.61 1.57 1.65 1.43 1.35 1.48 1.81 1.83 1.91 1.61 1.46 1.48 1.48 1.42 1.43 1.38
1.56 1.53 1.56 1.53 1.55 1.55 1.56 1.57 1.57 1.55 1.50 1.49 1.54 1.66 1.82 1.85 1.83 1.85 1.73 1.61 1.55 1.56 1.53 1.62 1.62 1.55 1.51 1.50 1.47 1.48 1.49 1.42 1.29 1.50 1.71 1.81 1.93 1.54 1.45 1.57 1.46 1.41 1.42
1.42 1.51 1.57 1.56 1.54 1.53 1.57 1.57 1.53 1.53 1.48 1.49 1.54 1.72 1.83 1.86 1.86 1.85 1.84 1.74 1.58 1.53 1.53 1.55 1.56 1.51 1.47 1.41 1.42 1.45 1.52 1.43 1.36 1.26 1.46 1.67 1.88 1.89 1.58 1.52 1.51 1.50 1.53
1.43 1.48 1.51 1.54 1.57 1.49 1.49 1.50 1.47 1.44 1.41 1.45 1.50 1.68 1.79 1.89 1.94 1.96 1.86 1.80 1.63 1.41 1.46 1.58 1.53 1.42 1.44 1.31 1.21 1.20 1.27 1.31 1.30 1.22 1.24 1.49 1.72 2.05 1.83 1.61 1.54 1.55 1.59
1.39 1.40 1.49 1.51 1.48 1.45 1.44 1.39 1.36 1.34 1.33 1.33 1.46 1.59 1.69 1.75 1.74 1.78 1.76 1.65 1.62 1.58 1.52 1.47 1.45 1.51 1.41 1.25 1.25 1.10 1.14 1.18 1.19 1.24 1.25 1.39 1.61 1.86 2.06 1.77 1.65 1.54 1.60
1.32 1.33 1.41 1.47 1.39 1.38 1.28 1.30 1.29 1.30 1.32 1.33 1.50 1.63 1.72 1.61 1.60 1.67 1.64 1.64 1.60 1.61 1.58 1.58 1.63 1.56 1.47 1.37 1.34 1.19 1.11 1.24 1.30 1.26 1.26 1.34 1.46 1.60 1.86 2.03 1.87 1.62 1.61
1.33 1.35 1.40 1.39 1.37 1.35 1.24 1.27 1.29 1.35 1.39 1.45 1.60 1.68 1.78 1.71 1.70 1.69 1.66 1.64 1.66 1.70 1.70 1.72 1.67 1.57 1.52 1.39 1.34 1.17 1.17 1.14 1.21 1.25 1.25 1.36 1.40 1.40 1.62 1.81 1.90 2.00 1.74
1.33 1.41 1.31 1.31 1.37 1.32 1.26 1.33 1.30 1.35 1.45 1.55 1.62 1.75 1.75 1.73 1.72 1.72 1.69 1.64 1.66 1.71 1.74 1.58 1.53 1.52 1.42 1.27 1.16 1.12 1.08 1.11 1.22 1.24 1.18 1.27 1.40 1.39 1.40 1.59 1.74 1.81 1.98
1.30 1.32 1.38 1.41 1.37 1.35 1.26 1.37 1.38 1.44 1.50 1.56 1.59 1.66 1.70 1.76 1.74 1.74 1.71 1.64 1.58 1.63 1.64 1.57 1.46 1.35 1.31 1.20 1.08 0.99 1.09 1.20 1.21 1.21 1.29 1.28 1.27 1.32 1.40 1.43 1.48 1.64 1.71
1.30 1.34 1.41 1.44 1.39 1.39 1.35 1.43 1.47 1.50 1.51 1.56 1.61 1.64 1.70 1.77 1.82 1.76 1.65 1.55 1.55 1.51 1.44 1.37 1.29 1.13 1.11 1.04 0.99 0.93 1.08 1.08 1.34 1.13 1.19 1.27 1.31 1.32 1.29 1.39 1.43 1.41 1.49
1.34 1.39 1.43 1.47 1.43 1.43 1.38 1.43 1.46 1.56 1.52 1.51 1.51 1.58 1.67 1.71 1.76 1.76 1.55 1.50 1.49 1.34 1.28 1.23 1.20 1.16 1.04 1.00 0.88 0.98 1.10 1.13 1.25 1.15 1.14 1.21 1.26 1.32 1.31 1.30 1.36 1.39 1.46
1.34 1.37 1.36 1.38 1.44 1.43 1.38 1.38 1.32 1.31 1.48 1.49 1.51 1.54 1.54 1.63 1.68 1.69 1.52 1.53 1.40 1.24 1.21 1.16 1.12 1.10 0.92 0.97 0.91 0.93 1.03 1.10 1.17 1.11 1.25 1.20 1.14 1.18 1.19 1.21 1.26 1.34 1.47
1.15 1.23 1.28 1.33 1.40 1.42 1.43 1.39 1.38 1.40 1.45 1.47 1.53 1.53 1.56 1.64 1.59 1.55 1.48 1.44 1.31 1.24 1.28 1.26 1.24 1.17 1.03 1.25 0.97 0.94 0.81 0.91 1.06 1.06 1.15 1.13 1.11 1.12 1.04 1.00 1.13 1.27 1.31
1.04 1.11 1.15 1.22 1.33 1.39 1.41 1.43 1.42 1.46 1.44 1.37 1.38 1.41 1.47 1.57 1.58 1.51 1.50 1.37 1.30 1.34 1.29 1.39 1.37 1.18 1.05 1.28 1.19 1.02 0.87 0.78 0.88 1.01 1.06 1.10 1.09 1.09 1.08 1.10 1.12 1.12 1.11
0.90 1.07 1.17 1.26 1.29 1.36 1.40 1.35 1.28 1.19 1.12 1.21 1.25 1.40 1.46 1.45 1.50 1.48 1.42 1.43 1.42 1.47 1.44 1.45 1.43 1.15 1.15 1.08 1.15 1.18 1.16 1.09 0.87 0.80 0.95 1.01 1.05 1.00 1.02 1.04 1.12 1.19 1.18
0.83 0.93 1.07 1.16 1.20 1.31 1.33 1.31 1.27 1.22 1.21 1.31 1.28 1.34 1.41 1.40 1.44 1.44 1.48 1.54 1.51 1.49 1.50 1.45 1.34 1.17 1.17 1.19 1.20 1.11 1.11 1.19 1.16 0.99 0.83 0.89 1.03 1.06 1.07 1.10 1.13 1.16 1.26
1.14 1.06 1.04 1.09 1.13 1.22 1.23 1.24 1.21 1.18 1.21 1.20 1.24 1.27 1.33 1.37 1.36 1.40 1.55 1.60 1.58 1.45 1.42 1.33 1.28 1.21 1.13 1.16 1.22 1.20 1.12 1.02 1.08 1.11 1.07 1.07 1.06 1.11 1.16 1.16 1.16 1.20 1.25
Wind_Speed
19 20 20 19 19 19 19 18 18 19 18 16 15 14 13 13 13 12 12 11 11 11 11 11 11 11 10 10 10 10 10 10 10 10 9 8 8 9 10 11 11 10 10
20 20 20 20 20 19 18 18 18 17 16 15 14 13 13 12 12 11 11 11 11 11 11 11 10 10 10 9 9 9 8 8 9 10 10 9 10 10 11 11 11 11 10
19 20 20 20 20 18 18 18 17 17 15 14 13 13 12 12 11 10 10 10 10 10 10 10 10 9 9 8 8 8 8 9 9 10 9 10 10 11 11 11 11 10 10
21 20 20 20 19 19 18 18 17 16 14 13 13 12 12 11 11 10 10 10 10 10 10 10 9 9 8 8 7 7 7 7 8 8 8 9 11 11 11 11 11 10 9
21 20 20 19 19 18 18 17 16 14 13 13 12 12 11 11 10 10 10 10 9 9 9 9 9 9 9 8 7 6 6 6 6 7 7 8 9 10 11 11 11 10 10
20 19 19 19 19 18 17 16 15 14 13 12 12 11 11 10 10 11 10 11 10 9 9 9 9 8 9 8 8 7 7 5 3 3 5 7 8 9 9 10 10 9 9
19 18 18 18 18 17 16 15 14 13 13 12 11 11 10 10 11 10 10 10 10 9 9 9 9 9 9 8 8 7 6 6 4 2 4 7 7 8 9 9 8 8 8
18 18 17 18 17 17 16 15 14 13 12 11 11 10 10 10 10 10 9 9 9 9 9 9 9 9 8 8 7 7 6 6 4 3 8 7 8 8 8 8 7 7 8
17 17 17 17 17 16 15 15 13 13 12 11 11 10 10 10 9 9 9 10 10 10 9 9 9 9 9 9 8 8 8 7 8 7 8 7 7 7 7 7 7 7 7
16 16 17 17 16 16 15 14 13 12 11 10 10 9 9 9 9 9 9 9 9 10 10 10 10 10 9 9 8 8 8 8 7 8 5 5 6 6 6 7 7 7 7
16 17 17 17 16 16 15 14 13 12 11 10 9 9 8 8 8 7 8 9 8 8 9 9 10 10 10 9 9 8 7 7 6 4 3 4 5 6 6 6 6 6 6
18 18 18 17 17 16 15 14 13 12 11 10 9 8 7 7 6 7 7 8 8 7 7 7 8 8 9 9 8 8 7 6 5 4 3 3 4 5 5 6 6 6 6
18 18 18 18 17 16 15 14 13 12 11 10 8 7 6 5 5 6 6 6 6 6 5 6 6 7 7 8 8 8 7 6 6 5 3 2 3 5 5 6 6 6 6
19 19 19 18 17 16 15 14 13 12 11 9 8 7 5 4 4 4 4 4 4 4 4 5 6 6 7 7 8 8 7 5 5 5 3 3 3 4 5 5 5 5 6
19 19 19 19 18 17 15 14 13 11 10 9 8 7 5 4 3 3 2 2 3 3 3 4 5 6 6 5 6 6 6 4 3 4 4 3 2 2 3 6 5 5 5
20 19 19 19 18 17 16 14 12 11 10 9 8 7 5 4 2 1 1 1 2 2 4 4 6 6 5 5 5 5 5 4 3 2 2 3 2 1 3 4 5 6 5
20 20 19 18 18 17 16 14 13 11 10 9 8 7 6 5 3 1 1 2 3 4 4 6 7 6 6 5 4 5 4 4 3 3 2 1 1 1 1 2 4 5 6
21 21 19 18 17 16 16 14 13 11 10 10 8 8 7 6 4 3 2 3 4 5 5 6 7 7 6 5 5 5 3 3 2 2 1 0 0 0 0 0 1 3 4
21 21 19 18 17 16 16 14 13 11 10 10 9 9 8 7 6 4 3 3 5 5 6 7 6 6 5 6 6 5 3 2 1 2 2 1 1 1 1 2 2 3 4
21 21 20 18 17 16 15 14 13 11 10 9 8 8 8 8 7 5 4 4 6 5 5 5 5 6 7 8 5 3 2 3 1 1 1 2 1 1 2 2 3 4 4
21 21 21 20 19 17 16 14 14 13 12 10 10 9 9 9 8 7 5 5 5 3 3 4 5 7 9 6 4 3 3 3 3 2 2 2 2 2 3 4 5 5 4
23 22 22 21 20 19 17 15 14 14 13 12 11 10 10 10 8 7 6 6 4 3 3 4 6 8 7 6 5 3 3 4 4 4 4 4 3 3 4 4 4 5 6
24 24 23 22 21 20 18 16 14 13 13 14 13 12 10 10 10 8 7 5 4 3 3 3 6 9 8 6 5 3 3 4 4 5 6 5 5 5 5 5 5 5 6
25 25 25 24 23 22 21 19 18 16 14 14 14 13 11 11 10 9 7 6 4 4 3 3 5 9 9 5 3 3 4 4 4 5 6 7 7 7 7 7 7 7 7
24 24 25 24 24 23 23 21 20 18 17 15 14 14 13 11 11 10 9 7 5 4 3 2 4 6 7 6 5 4 4 4 4 5 6 7 8 9 9 10 10 10 10
22 23 24 24 24 24 24 24 22 21 18 17 17 16 14 13 12 11 10 8 6 5 3 2 3 4 6 7 6 6 5 5 6 7 7 8 9 10 11 12 13 13 13
Wind_Direction
140 140 138 136 133 129 127 125 123 121 119 116 112 106 103 102 99 95 91 87 85 84 84 85 88 91 92 91 86 83 82 80 71 72 80 92 106 120 132 143 145 145 144
140 141 140 137 134 130 128 127 125 122 119 115 110 106 103 102 97 94 91 87 86 84 84 84 87 88 89 89 85 83 81 76 72 75 86 90 104 112 124 138 142 142 143
143 142 141 140 136 133 130 128 126 123 119 115 110 106 103 100 96 93 90 86 86 85 83 85 85 87 86 87 85 82 80 78 79 77 89 90 103 109 115 126 136 138 139
146 143 143 141 138 135 132 130 127 123 120 116 110 107 103 98 94 91 90 87 86 86 85 83 83 83 84 82 82 79 82 79 83 81 90 97 103 109 115 121 128 131 136
144 144 145 144 142 139 136 133 129 125 121 115 112 108 102 97 92 90 89 85 85 84 84 82 80 77 77 77 77 75 73 76 86 86 91 105 113 115 117 118 123 125 127
144 145 146 146 145 142 139 136 133 127 121 117 113 108 103 95 92 92 88 84 82 82 80 78 78 75 72 71 71 72 63 60 100 90 101 117 122 124 124 123 125 126 127
146 147 148 148 149 147 144 140 137 131 124 119 114 109 102 95 94 92 88 83 79 78 78 76 76 74 70 69 68 62 60 56 77 70 147 133 135 133 134 130 130 132 132
150 151 150 151 152 151 149 145 141 136 129 122 117 110 103 97 94 90 85 79 77 78 78 78 75 71 67 61 58 54 54 51 45 72 148 139 140 139 140 138 137 136 138
155 156 156 155 155 154 153 149 144 140 134 126 120 112 104 98 94 86 81 78 78 79 78 77 73 69 64 57 56 52 51 51 49 105 138 141 144 145 143 144 142 141 142
162 162 161 160 159 158 156 154 150 145 140 132 126 115 107 99 91 86 80 77 80 83 80 75 71 64 59 55 52 51 50 53 73 96 114 154 154 157 156 156 153 152 152
169 169 167 166 163 161 160 158 156 152 147 141 132 120 108 103 90 80 82 78 80 85 81 73 69 60 53 51 48 42 47 54 70 83 107 141 163 164 164 168 169 166 166
172 172 172 170 167 165 163 162 161 157 154 150 140 130 120 107 91 84 85 75 81 84 74 69 58 49 44 40 36 39 45 53 58 61 100 128 155 162 169 176 182 185 184
175 174 174 173 171 169 168 166 163 161 158 154 148 141 125 111 107 79 84 76 76 72 66 61 46 37 34 32 37 40 43 54 54 50 67 116 154 173 169 172 181 186 190
178 179 177 176 175 174 172 170 167 165 163 161 158 150 138 129 102 89 85 72 66 60 53 39 31 25 25 35 35 35 44 52 48 42 66 114 145 175 185 175 180 184 190
179 180 180 179 179 177 176 175 172 171 171 171 167 163 152 140 116 105 88 59 46 35 16 14 10 8 15 14 15 23 25 23 23 45 63 90 129 165 192 198 192 194 200
181 181 181 182 182 181 181 180 180 181 181 181 182 181 180 174 159 129 52 18 357 352 354 344 349 351 353 346 344 0 8 8 24 22 82 84 85 135 185 198 209 211 215
183 182 180 182 185 187 188 188 189 188 189 190 192 197 198 199 200 212 317 336 333 323 327 334 333 335 339 342 353 348 1 16 48 52 97 105 82 83 139 197 215 222 231
182 182 183 184 185 187 189 190 190 192 195 200 205 206 211 211 217 226 290 311 318 319 313 320 325 324 324 326 333 337 335 352 11 29 25 355 169 150 64 179 228 236 241
185 186 187 188 188 188 190 193 194 198 205 208 212 213 217 214 216 239 281 303 316 316 320 322 327 332 326 319 314 320 311 338 290 18 51 22 278 269 260 258 265 259 258
190 191 191 192 192 192 193 198 202 205 205 205 206 209 213 215 220 236 273 294 312 315 324 333 335 338 334 326 318 307 301 307 262 275 6 8 343 257 288 284 275 274 271
197 196 197 198 199 198 199 203 206 210 210 211 214 220 219 220 230 246 271 289 303 302 323 342 347 341 336 338 333 302 293 300 257 265 285 341 343 305 297 297 286 274 272
203 203 204 204 204 205 206 207 210 213 217 221 225 226 225 227 238 249 263 279 279 293 321 338 346 345 340 332 335 316 301 299 266 259 271 282 311 316 315 314 305 282 275
207 207 208 208 209 210 210 212 215 218 222 225 227 229 232 234 237 243 254 254 258 277 296 325 345 348 343 330 315 310 313 294 283 271 265 264 284 295 299 305 310 300 286
210 211 212 212 213 214 214 216 218 222 224 227 227 227 231 230 234 239 236 238 254 270 274 316 345 356 360 4 357 324 316 305 283 294 276 268 276 283 285 290 291 292 287
209 211 213 214 216 217 218 220 222 225 228 228 227 227 233 234 233 232 227 229 240 246 263 300 348 8 23 27 11 0 343 330 307 300 290 282 280 281 283 286 287 284 283
213 213 215 216 219 220 221 223 225 226 228 228 228 229 230 233 232 225 220 222 229 237 248 276 326 355 7 11 17 13 2 345 318 306 297 286 282 287 286 286 287 282 281